User: anonymous   Login
Location: Edmonton
(53.5500°N, 113.5000°W)
Time: 18:53:13
(UTC-06:00)
Language:

CZ-4C R/B - Orbit

View from above orbital plane
View from above orbital plane
View from above satellite
View from above satellite

Ground track
Ground track

The orbit data is extracted from the following two-line orbital elements,

1 36416U 10009D   17113.95317296 -.00000069 +00000-0 +18504-4 0  9993
2 36416 063.4409 049.5534 0381799 356.4547 003.3799 13.69515439356785
Epoch (UTC): 23 April 2017 22:52:34
Eccentricity: 0.0381799
inclination: 63.4409°
perigee height: 719 km
apogee height: 1283 km
right ascension of ascending node: 49.5534°
argument of perigee: 356.4547°
revolutions per day: 13.69515439
mean anomaly at epoch: 3.3799°
orbit number at epoch: 35678

The dashed part of the orbit path shows where the satellite is in the earth's shadow,  

DLR